Total_Precipitation_Accumulation
0.96 1.17 1.20 1.33 1.13 1.13 1.06 0.94 0.76 0.68 0.58 0.50 0.48 0.51 0.58 0.60 0.66 0.77 0.79 0.73 0.76 0.94 1.23 1.32 1.21 1.16 1.12 1.05 0.99 0.94 0.89 0.85 0.77 0.66 0.54 0.45 0.41 0.40 0.41 0.44 0.44 0.42 0.41
1.31 1.62 1.63 1.59 1.43 1.47 1.55 1.55 1.37 1.15 0.95 0.89 0.81 0.80 0.83 0.90 0.98 1.01 1.04 0.94 0.85 0.93 1.17 1.35 1.42 1.46 1.39 1.23 1.11 1.03 1.02 1.00 0.92 0.80 0.70 0.62 0.56 0.52 0.50 0.49 0.48 0.45 0.40
1.73 1.76 2.00 1.96 1.82 1.77 1.70 1.63 1.78 1.75 1.45 1.24 1.11 1.06 1.14 1.17 1.18 1.23 1.33 1.37 1.17 1.06 1.10 1.23 1.33 1.39 1.40 1.39 1.32 1.23 1.23 1.10 0.99 0.87 0.79 0.75 0.70 0.68 0.64 0.58 0.56 0.53 0.48
2.11 2.07 2.09 2.12 2.04 2.00 2.16 2.20 2.12 2.10 2.01 1.77 1.57 1.44 1.42 1.49 1.38 1.38 1.38 1.50 1.57 1.32 1.09 1.05 1.09 1.15 1.30 1.48 1.59 1.61 1.50 1.33 1.18 1.05 0.96 0.88 0.83 0.76 0.69 0.65 0.63 0.63 0.59
2.58 2.60 2.61 2.68 2.55 2.56 2.52 2.40 2.53 2.45 2.35 2.12 1.77 1.61 1.46 1.50 1.45 1.29 1.30 1.42 1.49 1.37 1.23 1.06 1.02 1.10 1.29 1.50 1.64 1.74 1.66 1.46 1.33 1.23 1.16 1.07 0.95 0.85 0.76 0.71 0.70 0.72 0.73
3.27 3.27 3.19 3.20 3.10 2.98 2.84 2.78 2.70 2.48 2.35 2.10 1.72 1.54 1.39 1.26 1.24 1.26 1.15 1.14 1.16 1.05 1.07 1.06 1.03 1.00 1.14 1.31 1.49 1.64 1.62 1.52 1.43 1.35 1.22 1.15 1.08 0.99 0.87 0.80 0.78 0.81 0.82
3.76 3.58 3.46 3.48 3.31 3.13 2.94 2.81 2.68 2.56 2.27 2.03 1.94 1.68 1.35 1.17 1.07 1.02 1.01 0.98 0.91 0.88 0.95 0.97 0.94 0.93 0.97 1.16 1.23 1.35 1.47 1.50 1.49 1.43 1.34 1.30 1.21 1.09 1.00 0.93 0.90 0.91 0.89
4.16 3.92 3.87 3.73 3.47 3.28 3.03 2.79 2.61 2.55 2.32 2.14 2.11 2.02 1.63 1.30 1.00 0.78 0.78 0.78 0.75 0.75 0.76 0.73 0.73 0.76 0.81 0.93 1.04 1.20 1.33 1.44 1.47 1.47 1.44 1.35 1.26 1.17 1.12 1.09 1.07 1.05 1.02
4.58 4.33 4.17 3.90 3.62 3.31 3.03 2.76 2.55 2.45 2.36 2.22 2.05 2.11 1.89 1.55 1.17 0.88 0.69 0.64 0.65 0.70 0.71 0.68 0.65 0.66 0.71 0.82 0.99 1.07 1.12 1.12 1.15 1.19 1.23 1.28 1.28 1.26 1.23 1.23 1.23 1.24 1.26
3.92 3.78 3.66 3.48 3.24 2.93 2.71 2.49 2.29 2.19 2.24 2.12 1.98 1.82 1.70 1.49 1.33 1.10 0.83 0.70 0.68 0.71 0.73 0.71 0.68 0.68 0.71 0.76 0.91 1.01 1.00 0.94 0.93 0.93 0.95 0.98 1.02 1.05 1.07 1.10 1.10 1.14 1.20
3.23 3.01 2.88 2.76 2.60 2.43 2.26 2.14 2.06 1.94 1.88 1.78 1.67 1.58 1.52 1.40 1.21 1.09 0.97 0.84 0.81 0.80 0.79 0.77 0.77 0.78 0.78 0.80 0.79 0.88 0.91 0.82 0.79 0.80 0.80 0.79 0.82 0.89 0.93 0.92 0.91 0.96 1.04
2.57 2.21 2.02 1.92 1.82 1.73 1.70 1.68 1.66 1.62 1.56 1.52 1.45 1.37 1.31 1.29 1.22 1.16 1.04 0.96 0.97 0.93 0.87 0.81 0.77 0.78 0.77 0.76 0.79 0.89 0.75 0.71 0.70 0.69 0.75 0.80 0.80 0.80 0.80 0.84 0.88 0.91 0.95
2.08 1.73 1.53 1.44 1.41 1.36 1.29 1.30 1.31 1.28 1.27 1.28 1.27 1.23 1.21 1.18 1.17 1.17 1.23 1.18 1.02 0.88 0.81 0.80 0.75 0.71 0.69 0.69 0.77 0.86 0.71 0.68 0.70 0.74 0.75 0.75 0.76 0.77 0.75 0.75 0.77 0.81 0.85
1.64 1.42 1.27 1.19 1.06 0.94 0.91 0.95 0.99 1.01 1.01 1.09 1.14 1.16 1.19 1.18 1.14 1.10 1.12 1.19 1.23 1.15 0.98 0.88 0.83 0.78 0.75 0.74 0.83 0.82 0.69 0.78 0.76 0.79 0.78 0.73 0.70 0.67 0.64 0.62 0.61 0.63 0.65
1.16 1.02 0.90 0.82 0.77 0.71 0.69 0.72 0.76 0.79 0.83 0.90 0.96 1.03 1.13 1.20 1.21 1.17 1.16 1.17 1.24 1.30 1.23 1.05 0.98 0.93 0.85 0.83 0.95 0.75 0.74 0.90 0.81 0.75 0.71 0.67 0.62 0.56 0.50 0.46 0.44 0.43 0.43
0.88 0.75 0.64 0.57 0.56 0.58 0.59 0.56 0.58 0.60 0.63 0.69 0.76 0.83 0.93 1.03 1.15 1.22 1.28 1.26 1.23 1.22 1.22 1.07 1.01 0.99 0.89 0.82 0.97 0.81 0.80 0.83 0.70 0.60 0.53 0.49 0.47 0.43 0.40 0.38 0.37 0.36 0.35
0.81 0.71 0.63 0.59 0.57 0.53 0.50 0.51 0.50 0.52 0.57 0.59 0.58 0.63 0.71 0.78 0.88 0.97 1.03 1.06 1.08 1.08 1.11 1.07 1.00 0.97 0.92 0.87 0.86 0.75 0.70 0.67 0.62 0.54 0.43 0.39 0.38 0.35 0.33 0.33 0.33 0.32 0.32
0.62 0.58 0.52 0.52 0.53 0.50 0.48 0.47 0.44 0.43 0.42 0.42 0.43 0.48 0.54 0.56 0.64 0.68 0.73 0.79 0.84 0.88 0.92 1.02 1.04 0.95 0.90 0.84 0.77 0.68 0.53 0.48 0.50 0.48 0.40 0.36 0.35 0.35 0.34 0.33 0.32 0.29 0.25
0.52 0.52 0.48 0.47 0.46 0.45 0.42 0.40 0.39 0.34 0.30 0.31 0.32 0.35 0.40 0.42 0.46 0.47 0.51 0.54 0.60 0.69 0.83 0.93 0.97 0.91 0.84 0.74 0.67 0.56 0.48 0.50 0.39 0.36 0.32 0.31 0.31 0.30 0.27 0.24 0.21 0.19 0.15
0.48 0.49 0.45 0.41 0.35 0.32 0.30 0.33 0.35 0.30 0.27 0.26 0.27 0.28 0.31 0.33 0.34 0.37 0.39 0.42 0.49 0.61 0.73 0.81 0.79 0.73 0.69 0.61 0.61 0.57 0.49 0.45 0.39 0.29 0.27 0.23 0.22 0.18 0.16 0.14 0.13 0.13 0.11
0.42 0.40 0.36 0.34 0.30 0.27 0.27 0.28 0.30 0.29 0.27 0.25 0.23 0.22 0.24 0.28 0.31 0.32 0.32 0.38 0.46 0.57 0.63 0.65 0.63 0.56 0.52 0.55 0.57 0.51 0.47 0.42 0.35 0.28 0.28 0.23 0.21 0.23 0.22 0.17 0.12 0.09 0.07
0.37 0.35 0.32 0.30 0.29 0.25 0.27 0.27 0.25 0.30 0.30 0.29 0.25 0.22 0.21 0.21 0.23 0.26 0.28 0.35 0.43 0.47 0.49 0.51 0.51 0.50 0.46 0.48 0.52 0.50 0.49 0.50 0.47 0.35 0.35 0.28 0.21 0.29 0.30 0.27 0.17 0.10 0.07
0.38 0.34 0.29 0.28 0.31 0.30 0.27 0.24 0.24 0.30 0.33 0.33 0.30 0.27 0.22 0.18 0.24 0.27 0.27 0.29 0.33 0.34 0.39 0.47 0.50 0.49 0.48 0.51 0.59 0.58 0.57 0.57 0.53 0.41 0.44 0.41 0.31 0.34 0.25 0.17 0.16 0.13 0.10
0.39 0.36 0.31 0.29 0.30 0.29 0.27 0.25 0.25 0.27 0.33 0.32 0.29 0.29 0.29 0.28 0.26 0.25 0.21 0.23 0.29 0.34 0.36 0.40 0.49 0.48 0.42 0.46 0.55 0.59 0.57 0.55 0.53 0.49 0.51 0.53 0.38 0.33 0.22 0.30 0.26 0.18 0.13
0.38 0.33 0.31 0.31 0.32 0.31 0.28 0.26 0.25 0.25 0.28 0.24 0.21 0.24 0.24 0.25 0.25 0.26 0.23 0.27 0.31 0.37 0.34 0.38 0.42 0.43 0.46 0.50 0.52 0.54 0.61 0.67 0.65 0.58 0.57 0.59 0.50 0.40 0.32 0.38 0.34 0.23 0.21
0.37 0.30 0.30 0.32 0.32 0.33 0.28 0.24 0.24 0.21 0.22 0.19 0.19 0.21 0.23 0.19 0.18 0.17 0.18 0.27 0.37 0.36 0.34 0.38 0.52 0.68 0.74 0.71 0.61 0.60 0.69 0.74 0.75 0.79 0.68 0.65 0.62 0.51 0.47 0.39 0.39 0.40 0.44